• In Netherlands
  • List of Countries
  • For 7 days
  • Water Temperature
  • Satellite Maps
  • Weather Map
  • Weather Widgets
  • user-avatar
    Login

    Hourly Weather Lubango

    Today, 30 April, Sunday

    Time Temperature Precipitation Wind Pressure Humidity
    00:00 +13°C° 0 mm 1 mps 609 mmHg 68%
    01:00 +13°C° 0 mm 1 mps 609 mmHg 69%
    02:00 +13°C° 0 mm 1 mps 609 mmHg 69%
    03:00 +13°C° 0 mm 2 mps 609 mmHg 69%
    04:00 +13°C° 0 mm 2 mps 609 mmHg 70%
    05:00 +13°C° 0 mm 2 mps 609 mmHg 69%
    06:00 +13°C° 0 mm 2 mps 609 mmHg 69%
    07:00 +14°C° 0 mm 2 mps 610 mmHg 66%
    08:00 +17°C° 0 mm 3 mps 611 mmHg 58%
    09:00 +19°C° 0 mm 3 mps 612 mmHg 50%
    10:00 +22°C° 0 mm 4 mps 613 mmHg 41%
    11:00 +24°C° 0 mm 3 mps 613 mmHg 37%
    12:00 +26°C° 0 mm 3 mps 613 mmHg 33%
    13:00 +27°C° 0 mm 3 mps 613 mmHg 29%
    14:00 +27°C° 0 mm 2 mps 613 mmHg 29%
    15:00 +27°C° 0 mm 2 mps 612 mmHg 30%
    16:00 +27°C° 0 mm 2 mps 612 mmHg 30%
    17:00 +24°C° 0 mm 2 mps 611 mmHg 36%
    18:00 +19°C° 0 mm 2 mps 610 mmHg 42%
    19:00 +16°C° 0 mm 2 mps 609 mmHg 48%
    20:00 +15°C° 0 mm 2 mps 609 mmHg 50%
    21:00 +15°C° 0 mm 2 mps 609 mmHg 52%
    22:00 +14°C° 0 mm 2 mps 609 mmHg 54%
    23:00 +14°C° 0 mm 2 mps 608 mmHg 54%

    Tomorrow, 1 May, Monday

    Time Temperature Precipitation Wind Pressure Humidity
    00:00 +13°C° 0 mm 2 mps 608 mmHg 54%
    01:00 +13°C° 0 mm 2 mps 608 mmHg 53%
    02:00 +13°C° 0 mm 2 mps 608 mmHg 55%
    03:00 +12°C° 0 mm 2 mps 608 mmHg 56%
    04:00 +12°C° 0 mm 2 mps 608 mmHg 58%
    05:00 +12°C° 0 mm 2 mps 608 mmHg 58%
    06:00 +12°C° 0 mm 2 mps 608 mmHg 59%
    07:00 +13°C° 0 mm 2 mps 609 mmHg 60%
    08:00 +16°C° 0 mm 2 mps 610 mmHg 52%
    09:00 +19°C° 0 mm 3 mps 611 mmHg 43%
    10:00 +22°C° 0 mm 3 mps 613 mmHg 35%
    11:00 +24°C° 0 mm 3 mps 613 mmHg 32%
    12:00 +26°C° 0 mm 3 mps 612 mmHg 29%
    13:00 +27°C° 0 mm 2 mps 612 mmHg 26%
    14:00 +27°C° 0 mm 2 mps 612 mmHg 27%
    15:00 +26°C° 0 mm 2 mps 611 mmHg 27%
    16:00 +26°C° 0 mm 1 mps 611 mmHg 28%
    17:00 +23°C° 0 mm 1 mps 610 mmHg 35%
    18:00 +19°C° 0 mm 1 mps 609 mmHg 43%
    19:00 +15°C° 0 mm 2 mps 608 mmHg 51%
    20:00 +14°C° 0 mm 2 mps 608 mmHg 52%
    21:00 +14°C° 0 mm 2 mps 608 mmHg 52%
    22:00 +13°C° 0 mm 2 mps 608 mmHg 53%
    23:00 +13°C° 0 mm 2 mps 608 mmHg 53%

    Day after tomorrow, 2 May, Tuesday

    Time Temperature Precipitation Wind Pressure Humidity
    00:00 +12°C° 0 mm 2 mps 608 mmHg 53%
    01:00 +12°C° 0 mm 2 mps 608 mmHg 53%
    02:00 +12°C° 0 mm 2 mps 608 mmHg 54%
    03:00 +12°C° 0 mm 2 mps 607 mmHg 56%
    04:00 +12°C° 0 mm 2 mps 607 mmHg 57%
    05:00 +12°C° 0 mm 2 mps 608 mmHg 58%
    06:00 +12°C° 0 mm 2 mps 608 mmHg 59%
    07:00 +12°C° 0 mm 2 mps 608 mmHg 61%
    08:00 +14°C° 0 mm 3 mps 610 mmHg 54%
    09:00 +18°C° 0 mm 3 mps 611 mmHg 46%
    10:00 +21°C° 0 mm 4 mps 612 mmHg 39%
    11:00 +22°C° 0 mm 3 mps 612 mmHg 36%
    12:00 +25°C° 0 mm 3 mps 612 mmHg 32%
    13:00 +26°C° 0 mm 3 mps 612 mmHg 29%
    14:00 +26°C° 0 mm 2 mps 611 mmHg 29%
    15:00 +26°C° 0 mm 2 mps 611 mmHg 29%
    16:00 +26°C° 0 mm 1 mps 610 mmHg 29%
    17:00 +22°C° 0 mm 1 mps 609 mmHg 38%
    18:00 +18°C° 0 mm 1 mps 608 mmHg 47%
    19:00 +14°C° 0 mm 1 mps 607 mmHg 55%
    20:00 +13°C° 0 mm 1 mps 607 mmHg 55%
    21:00 +13°C° 0 mm 1 mps 607 mmHg 55%
    22:00 +13°C° 0 mm 1 mps 608 mmHg 55%
    23:00 +13°C° 0 mm 2 mps 608 mmHg 56%

    3 May, Wednesday

    Time Temperature Precipitation Wind Pressure Humidity
    00:00 +12°C° 0 mm 2 mps 607 mmHg 56%
    01:00 +12°C° 0 mm 2 mps 607 mmHg 57%
    02:00 +12°C° 0 mm 2 mps 607 mmHg 58%
    03:00 +12°C° 0 mm 2 mps 607 mmHg 59%
    04:00 +10°C° 0 mm 2 mps 607 mmHg 59%
    05:00 +12°C° 0 mm 2 mps 607 mmHg 60%
    06:00 +12°C° 0 mm 2 mps 608 mmHg 61%
    07:00 +12°C° 0 mm 2 mps 608 mmHg 62%
    08:00 +14°C° 0 mm 3 mps 609 mmHg 54%
    09:00 +18°C° 0 mm 3 mps 611 mmHg 45%
    10:00 +22°C° 0 mm 3 mps 612 mmHg 37%
    11:00 +24°C° 0 mm 3 mps 612 mmHg 33%
    12:00 +26°C° 0 mm 2 mps 612 mmHg 30%
    13:00 +27°C° 0 mm 2 mps 612 mmHg 26%
    14:00 +27°C° 0 mm 1 mps 611 mmHg 28%
    15:00 +26°C° 0 mm 1 mps 611 mmHg 29%
    16:00 +26°C° 0 mm 1 mps 610 mmHg 30%
    17:00 +22°C° 0 mm 1 mps 609 mmHg 42%
    18:00 +16°C° 0 mm 0 mps 608 mmHg 55%
    19:00 +13°C° 0 mm 0 mps 607 mmHg 67%
    20:00 +12°C° 0 mm 0 mps 607 mmHg 68%
    21:00 +11°C° 0 mm 0 mps 607 mmHg 68%
    22:00 +10°C° 0 mm 0 mps 607 mmHg 69%
    23:00 +10°C° 0 mm 0 mps 607 mmHg 69%

    4 May, Thursday

    Time Temperature Precipitation Wind Pressure Humidity
    00:00 +11°C° 0 mm 1 mps 607 mmHg 69%
    01:00 +11°C° 0 mm 1 mps 606 mmHg 70%
    02:00 +11°C° 0 mm 1 mps 606 mmHg 67%
    03:00 +11°C° 0 mm 1 mps 606 mmHg 64%
    04:00 +11°C° 0 mm 1 mps 606 mmHg 62%
    05:00 +12°C° 0 mm 2 mps 607 mmHg 61%
    06:00 +12°C° 0 mm 2 mps 608 mmHg 60%
    07:00 +12°C° 0 mm 2 mps 608 mmHg 60%
    08:00 +16°C° 0 mm 2 mps 609 mmHg 52%
    09:00 +19°C° 0 mm 3 mps 611 mmHg 44%
    10:00 +22°C° 0 mm 3 mps 612 mmHg 36%
    11:00 +25°C° 0 mm 2 mps 612 mmHg 33%
    12:00 +26°C° 0 mm 2 mps 612 mmHg 30%
    13:00 +27°C° 0 mm 2 mps 611 mmHg 27%
    14:00 +27°C° 0 mm 1 mps 611 mmHg 28%
    15:00 +27°C° 0 mm 1 mps 610 mmHg 29%
    16:00 +25°C° 0 mm 0 mps 610 mmHg 30%
    17:00 +21°C° 0 mm 0 mps 609 mmHg 42%
    18:00 +17°C° 0 mm 0 mps 608 mmHg 54%
    19:00 +14°C° 0 mm 1 mps 606 mmHg 66%
    20:00 +14°C° 0 mm 1 mps 606 mmHg 66%
    21:00 +13°C° 0 mm 1 mps 607 mmHg 66%
    22:00 +12°C° 0 mm 1 mps 607 mmHg 67%
    23:00 +12°C° 0 mm 1 mps 607 mmHg 65%

    5 May, Friday

    Time Temperature Precipitation Wind Pressure Humidity
    00:00 +12°C° 0 mm 1 mps 607 mmHg 64%
    01:00 +12°C° 0 mm 1 mps 607 mmHg 62%
    02:00 +12°C° 0 mm 1 mps 606 mmHg 61%
    03:00 +12°C° 0 mm 1 mps 606 mmHg 60%
    04:00 +12°C° 0 mm 2 mps 606 mmHg 59%
    05:00 +12°C° 0 mm 2 mps 607 mmHg 59%
    06:00 +13°C° 0 mm 2 mps 607 mmHg 58%
    07:00 +13°C° 0 mm 2 mps 608 mmHg 58%
    08:00 +16°C° 0 mm 2 mps 609 mmHg 50%
    09:00 +20°C° 0 mm 3 mps 611 mmHg 42%
    10:00 +24°C° 0 mm 3 mps 612 mmHg 34%
    11:00 +25°C° 0 mm 2 mps 612 mmHg 32%
    12:00 +26°C° 0 mm 2 mps 612 mmHg 29%
    13:00 +28°C° 0 mm 2 mps 612 mmHg 26%
    14:00 +27°C° 0 mm 1 mps 611 mmHg 29%
    15:00 +27°C° 0 mm 1 mps 611 mmHg 31%
    16:00 +26°C° 0 mm 1 mps 610 mmHg 33%
    17:00 +23°C° 0 mm 1 mps 609 mmHg 43%
    18:00 +19°C° 0 mm 1 mps 608 mmHg 54%
    19:00 +14°C° 0 mm 1 mps 607 mmHg 64%
    20:00 +14°C° 0 mm 1 mps 607 mmHg 63%
    21:00 +14°C° 0 mm 1 mps 607 mmHg 61%
    22:00 +13°C° 0 mm 1 mps 607 mmHg 60%
    23:00 +13°C° 0 mm 1 mps 607 mmHg 58%
    Show more